Weather History for Brownsville, TX

Change the Weather History Date:

Wednesday, February 26, 2014

  Actual Average Record
Temperature  
Mean Temperature 59 °F 66 °F  
Max Temperature 72 °F 76 °F 90 °F (1971)
Min Temperature 46 °F 56 °F 33 °F (1894)
Degree Days  
Heating Degree Days 6 3  
Month to date heating degree days 154 101  
Since 1 July heating degree days 712 500  
Cooling Degree Days 0 4  
Month to date cooling degree days 98 74  
Year to date cooling degree days 119 133  
Growing Degree Days 9 (Base 50)    
Moisture  
Dew Point 58 °F    
Average Humidity 93    
Maximum Humidity 100    
Minimum Humidity 86    
Precipitation  
Precipitation T in 0.03 in 2.40 in (1973)
Month to date precipitation 0.08 1.00  
Year to date precipitation 0.76 2.27  
Sea Level Pressure  
Sea Level Pressure 30.00 in    
Wind  
Wind Speed 12 mph (North)    
Max Wind Speed 23 mph    
Max Gust Speed 32 mph    
Visibility 8 miles    
Events Rain    
T = Trace of Precipitation, MM = Missing Value Source: NWS Daily Summary

Daily Weather History Graph

Daily Weather History Graph

Search for Another Location

Airport:

Trip Planner

Search our weather history database for the weather conditions in past years. The results will help you decide how hot, cold, wet, or windy it might be!

Date:

Astronomy

Feb. 26, 2014 Rise Set
Actual Time 6:55 AM CST 6:29 PM CST
Civil Twilight 6:32 AM CST 6:52 PM CST
Nautical Twilight 6:05 AM CST 7:19 PM CST
Astronomical Twilight 5:39 AM CST 7:46 PM CST
Moon 4:30 AM CST (2/26) 3:56 PM CST (2/26)
Length of Visible Light 12h 20m
Length of Day
11h 33m
Waning Crescent, 10% of the Moon is Illuminated
Feb 26
Waning Crescent
Mar 1
New
Mar 8
First Quarter
Mar 16
Full
Mar 23
Last Quarter

Hourly Weather History & Observations

Time (CST) Temp. Windchill Dew Point Humidity Pressure Visibility Wind Dir Wind Speed Gust Speed Precip Events Conditions
12:53 AM 72.0 °F - 71.1 °F 97% 29.88 in 10.0 mi SSE 9.2 mph - N/A   Overcast
1:04 AM 71.6 °F - 71.6 °F 100% 29.88 in 10.0 mi SSE 8.1 mph - N/A   Overcast
1:53 AM 72.0 °F - 71.1 °F 97% 29.88 in 10.0 mi SSE 5.8 mph - N/A   Overcast
2:50 AM 71.6 °F - 71.6 °F 100% 29.86 in 10.0 mi SSE 5.8 mph - N/A   Mostly Cloudy
2:53 AM 72.0 °F - 71.1 °F 97% 29.86 in 10.0 mi SSE 4.6 mph - N/A   Mostly Cloudy
3:11 AM 71.6 °F - 71.6 °F 100% 29.86 in 10.0 mi SSE 5.8 mph - N/A   Mostly Cloudy
3:53 AM 72.0 °F - 71.1 °F 97% 29.86 in 10.0 mi South 5.8 mph - N/A   Overcast
4:53 AM 72.0 °F - 71.1 °F 97% 29.87 in 9.0 mi Calm Calm - N/A   Overcast
5:53 AM 72.0 °F - 71.1 °F 97% 29.88 in 9.0 mi Calm Calm - N/A   Overcast
6:02 AM 71.6 °F - 71.6 °F 100% 29.88 in 9.0 mi Calm Calm - N/A   Overcast
6:23 AM 71.6 °F - 71.6 °F 100% 29.89 in 8.0 mi Calm Calm - N/A   Overcast
6:53 AM 72.0 °F - 71.1 °F 97% 29.90 in 7.0 mi Calm Calm - N/A   Overcast
7:22 AM 71.6 °F - 71.6 °F 100% 29.91 in 6.0 mi Calm Calm - N/A   Overcast
7:46 AM 71.6 °F - 71.6 °F 100% 29.92 in 5.0 mi NNE 4.6 mph - N/A   Overcast
7:53 AM 72.0 °F - 71.1 °F 97% 29.92 in 4.0 mi NNE 5.8 mph - N/A   Overcast
8:13 AM 71.6 °F - 71.6 °F 100% 29.94 in 7.0 mi North 18.4 mph 32.2 mph N/A   Overcast
8:22 AM 62.6 °F - 62.6 °F 100% 29.96 in 9.0 mi North 15.0 mph 32.2 mph 0.00 in Rain Light Rain
8:53 AM 61.0 °F - 60.1 °F 97% 29.99 in 9.0 mi North 17.3 mph 25.3 mph 0.00 in Rain Light Rain
9:53 AM 59.0 °F - 57.9 °F 96% 30.02 in 6.0 mi North 17.3 mph 25.3 mph 0.00 in Rain Light Rain
10:41 AM 57.2 °F - 55.4 °F 94% 30.03 in 9.0 mi North 15.0 mph 26.5 mph 0.00 in   Overcast
10:53 AM 57.0 °F - 55.9 °F 96% 30.04 in 10.0 mi North 18.4 mph 27.6 mph 0.00 in   Overcast
11:53 AM 57.0 °F - 55.0 °F 93% 30.04 in 9.0 mi North 15.0 mph 25.3 mph N/A   Overcast
12:03 PM 57.2 °F - 55.4 °F 94% 30.04 in 2.5 mi North 11.5 mph 25.3 mph 0.00 in Rain Light Rain
12:16 PM 55.4 °F - 55.4 °F 100% 30.04 in 2.5 mi North 17.3 mph 28.8 mph 0.00 in Rain Light Rain
12:53 PM 55.0 °F - 53.1 °F 93% 30.04 in 2.5 mi North 20.7 mph 31.1 mph 0.00 in   Overcast
1:53 PM 53.1 °F - 51.1 °F 93% 30.04 in 2.5 mi NNW 17.3 mph 27.6 mph 0.00 in Rain Light Rain
2:00 PM 53.6 °F - 51.8 °F 94% 30.04 in 7.0 mi NNW 16.1 mph 26.5 mph 0.00 in Rain Light Rain
2:30 PM 51.8 °F - 50.0 °F 94% 30.05 in 2.0 mi NNW 12.7 mph 23.0 mph 0.00 in   Overcast
2:53 PM 50.0 °F - 48.9 °F 96% 30.04 in 2.0 mi NNW 15.0 mph 26.5 mph 0.00 in   Overcast
3:00 PM 50.0 °F - 48.2 °F 94% 30.05 in 6.0 mi NNW 19.6 mph 28.8 mph N/A   Overcast
3:53 PM 48.9 °F - 48.0 °F 97% 30.05 in 10.0 mi NNW 18.4 mph 23.0 mph 0.00 in   Overcast
4:53 PM 48.0 °F - 46.0 °F 93% 30.06 in 10.0 mi North 16.1 mph 25.3 mph N/A   Overcast
5:09 PM 48.2 °F - 46.4 °F 93% 30.08 in 10.0 mi NNW 15.0 mph 25.3 mph N/A   Overcast
5:53 PM 46.9 °F - 45.0 °F 93% 30.08 in 7.0 mi NNW 15.0 mph 25.3 mph N/A   Overcast
6:49 PM 46.4 °F 39.8 °F 44.6 °F 93% 30.11 in 10.0 mi North 16.1 mph 26.5 mph N/A   Overcast
6:53 PM 46.9 °F - 43.0 °F 86% 30.12 in 10.0 mi NNW 15.0 mph 25.3 mph N/A   Overcast
7:53 PM 46.0 °F 40.2 °F 43.0 °F 89% 30.14 in 10.0 mi NNW 12.7 mph 21.9 mph N/A   Overcast
8:53 PM 46.0 °F 40.6 °F 43.0 °F 89% 30.16 in 10.0 mi NNW 11.5 mph 19.6 mph N/A   Overcast
9:53 PM 46.0 °F 40.2 °F 43.0 °F 89% 30.17 in 10.0 mi NNW 12.7 mph 18.4 mph N/A   Overcast
10:53 PM 46.0 °F 39.9 °F 42.1 °F 86% 30.17 in 10.0 mi NNW 13.8 mph - N/A   Overcast
11:53 PM 46.0 °F 39.9 °F 41.0 °F 83% 30.18 in 10.0 mi NW 13.8 mph 23.0 mph N/A   Overcast